Flag for U.S.A. Weather past 2 weeks in San Francisco, California, U.S.A.

Now
53 °F

Clear.


Feels Like: 53 °F
Forecast: 51 / 68 °F
Wind: 3 mph from West

Location: San Francisco International Airport

Current Time: Apr 27, 2015 at 4:32:07 AM

Latest Report: Apr 27, 2015 at 3:56 AM


Visibility: 10 mi

Pressure: 30.03 "Hg

Humidity: 83%

Dew point: 48 °F

Location of San FranciscoLocation

Historic Weather in San Francisco — Graph

°F

San Francisco temperature yesterday

Maximum temperature yesterday: 66 °F (at 1:56 PM)
Minimum temperature yesterday: 51 °F (at 5:56 AM)
Average temperature yesterday: 57 °F

Past Weeks' High & Low Weather Summary

 TemperatureHumidityPressure
High78 °F (Apr 16, 2:56 PM)100% (Apr 12, 2:56 AM)30.35 "Hg (Apr 12, 2:56 AM)
Low49 °F (Apr 18, 6:56 AM)20% (Apr 16, 2:56 PM)29.84 "Hg (Apr 20, 5:56 PM)
Average57 °F73%30.01 "Hg
* Reported Apr 12 2:56 AM — Apr 27 2:56 AM, San Francisco, Weather by CustomWeather, © 2015

Note: Actual official high and low records may vary slightly from our data, if they occured in-between our weather recording intervals... More about our weather records

Advertising

San Francisco weather history for previous 24 hours

 ConditionsComfort  
Time TempWeatherWind HumidityBarometerVisibility
2:56 AM
Mon, Apr 27
54 °FClear.7 mph80%30.03 "Hg10 mi
1:56 AM54 °FClear.5 mph80%30.05 "Hg10 mi
12:56 AM55 °FClear.5 mph77%30.06 "Hg10 mi
11:56 PM
Sun, Apr 26
54 °FClear.9 mph83%30.07 "Hg10 mi
10:56 PM55 °FClear.13 mph80%30.08 "Hg10 mi
9:56 PM55 °FPassing clouds.14 mph80%30.09 "Hg10 mi
8:56 PM56 °FPassing clouds.20 mph77%30.09 "Hg10 mi
7:56 PM57 °FScattered clouds.16 mph74%30.07 "Hg10 mi
6:56 PM59 °FPartly sunny.26 mph69%30.07 "Hg10 mi
5:56 PM61 °FScattered clouds.26 mph65%30.08 "Hg10 mi
4:56 PM63 °FScattered clouds.26 mph60%30.10 "Hg10 mi
3:56 PM64 °FScattered clouds.25 mph58%30.11 "Hg10 mi
2:56 PM65 °FScattered clouds.23 mph54%30.14 "Hg10 mi
1:56 PM66 °FScattered clouds.18 mph50%30.14 "Hg10 mi
12:56 PM65 °FScattered clouds.16 mph49%30.14 "Hg10 mi
11:56 AM64 °FScattered clouds.10 mph45%30.16 "Hg10 mi
10:56 AM63 °FPassing clouds.12 mph48%30.16 "Hg10 mi
9:56 AM59 °FPassing clouds.8 mph56%30.15 "Hg10 mi
8:56 AM57 °FScattered clouds.12 mph62%30.14 "Hg10 mi
7:56 AM54 °FPassing clouds.10 mph72%30.13 "Hg10 mi
6:56 AM52 °FPassing clouds.13 mph75%30.11 "Hg10 mi
5:56 AM51 °FPassing clouds.8 mph77%30.09 "Hg10 mi
4:56 AM52 °FPassing clouds.16 mph75%30.08 "Hg10 mi
Weather by CustomWeather, © 2015

See weather overviewHow to use our weather pages